owner,sensor,date,latitude,longitude,vertical_datum,sea_water_temperature,qcFlag
Murphy,ioos:station:wmo:42397:2,2022-05-01T00:12:00Z,28.7547,-88.2673,28.2,24.8,11111222
Murphy,ioos:station:wmo:42397:2,2022-05-01T00:32:00Z,28.7547,-88.2673,28.2,24.8,11111222
Murphy,ioos:station:wmo:42397:2,2022-05-01T00:52:00Z,28.7547,-88.2673,28.2,24.8,11111222
Murphy,ioos:station:wmo:42397:2,2022-05-01T01:12:00Z,28.7547,-88.2673,28.2,24.9,11111222
Murphy,ioos:station:wmo:42397:2,2022-05-01T01:32:00Z,28.7547,-88.2673,28.2,24.8,11111222
Murphy,ioos:station:wmo:42397:2,2022-05-01T01:52:00Z,28.7547,-88.2673,28.2,24.9,11111222
Murphy,ioos:station:wmo:42397:2,2022-05-01T02:12:00Z,28.7547,-88.2673,28.2,24.9,11111222
Murphy,ioos:station:wmo:42397:2,2022-05-01T02:32:00Z,28.7547,-88.2673,28.2,24.9,11111222
Murphy,ioos:station:wmo:42397:2,2022-05-01T02:52:00Z,28.7547,-88.2673,28.2,24.9,11111222
Murphy,ioos:station:wmo:42397:2,2022-05-01T03:12:00Z,28.7547,-88.2673,28.2,24.8,11111222
Murphy,ioos:station:wmo:42397:2,2022-05-01T03:32:00Z,28.7547,-88.2673,28.2,24.8,11111222
Murphy,ioos:station:wmo:42397:2,2022-05-01T03:52:00Z,28.7547,-88.2673,28.2,24.8,11111222
Murphy,ioos:station:wmo:42397:2,2022-05-01T04:12:00Z,28.7547,-88.2673,28.2,24.8,11111222
Murphy,ioos:station:wmo:42397:2,2022-05-01T04:32:00Z,28.7547,-88.2673,28.2,24.7,11111222
Murphy,ioos:station:wmo:42397:2,2022-05-01T04:52:00Z,28.7547,-88.2673,28.2,24.6,11111222
Murphy,ioos:station:wmo:42397:2,2022-05-01T05:12:00Z,28.7547,-88.2673,28.2,24.6,11111222
Murphy,ioos:station:wmo:42397:2,2022-05-01T05:32:00Z,28.7547,-88.2673,28.2,24.6,11111222
Murphy,ioos:station:wmo:42397:2,2022-05-01T05:52:00Z,28.7547,-88.2673,28.2,24.6,11111222
Murphy,ioos:station:wmo:42397:2,2022-05-01T06:12:00Z,28.7547,-88.2673,28.2,24.6,11111222
Murphy,ioos:station:wmo:42397:2,2022-05-01T06:32:00Z,28.7547,-88.2673,28.2,24.6,11111222
Murphy,ioos:station:wmo:42397:2,2022-05-01T06:52:00Z,28.7547,-88.2673,28.2,24.6,11111222
Murphy,ioos:station:wmo:42397:2,2022-05-01T07:12:00Z,28.7547,-88.2673,28.2,24.5,11111222
Murphy,ioos:station:wmo:42397:2,2022-05-01T07:32:00Z,28.7547,-88.2673,28.2,24.5,11111222
Murphy,ioos:station:wmo:42397:2,2022-05-01T07:52:00Z,28.7547,-88.2673,28.2,24.5,11111222
Murphy,ioos:station:wmo:42397:2,2022-05-01T08:12:00Z,28.7547,-88.2673,28.2,24.5,11111222
Murphy,ioos:station:wmo:42397:2,2022-05-01T08:32:00Z,28.7547,-88.2673,28.2,24.5,11111222
Murphy,ioos:station:wmo:42397:2,2022-05-01T08:52:00Z,28.7547,-88.2673,28.2,24.5,11111222
Murphy,ioos:station:wmo:42397:2,2022-05-01T09:12:00Z,28.7547,-88.2673,28.2,24.5,11111222
Murphy,ioos:station:wmo:42397:2,2022-05-01T09:32:00Z,28.7547,-88.2673,28.2,24.5,11111222
Murphy,ioos:station:wmo:42397:2,2022-05-01T09:53:00Z,28.7547,-88.2673,28.2,24.5,11111222
Murphy,ioos:station:wmo:42397:2,2022-05-01T10:12:00Z,28.7547,-88.2673,28.2,24.5,11111222
Murphy,ioos:station:wmo:42397:2,2022-05-01T10:31:00Z,28.7547,-88.2673,28.2,24.5,11111222
Murphy,ioos:station:wmo:42397:2,2022-05-01T10:51:00Z,28.7547,-88.2673,28.2,24.5,11111222
Murphy,ioos:station:wmo:42397:2,2022-05-01T11:11:00Z,28.7547,-88.2673,28.2,24.5,11111222
Murphy,ioos:station:wmo:42397:2,2022-05-01T11:31:00Z,28.7547,-88.2673,28.2,24.6,11111222
Murphy,ioos:station:wmo:42397:2,2022-05-01T11:51:00Z,28.7547,-88.2673,28.2,24.5,11111222
Murphy,ioos:station:wmo:42397:2,2022-05-01T12:11:00Z,28.7547,-88.2673,28.2,24.4,11111222
Murphy,ioos:station:wmo:42397:2,2022-05-01T12:30:00Z,28.7547,-88.2673,28.2,24.4,11111222
Murphy,ioos:station:wmo:42397:2,2022-05-01T12:49:00Z,28.7547,-88.2673,28.2,24.4,11111222
Murphy,ioos:station:wmo:42397:2,2022-05-01T13:09:00Z,28.7547,-88.2673,28.2,24.4,11111222
Murphy,ioos:station:wmo:42397:2,2022-05-01T13:29:00Z,28.7547,-88.2673,28.2,24.3,11111222
Murphy,ioos:station:wmo:42397:2,2022-05-01T13:49:00Z,28.7547,-88.2673,28.2,24.3,11111222
Murphy,ioos:station:wmo:42397:2,2022-05-01T14:09:00Z,28.7547,-88.2673,28.2,24.4,11111222
Murphy,ioos:station:wmo:42397:2,2022-05-01T14:29:00Z,28.7547,-88.2673,28.2,24.5,11111222
Murphy,ioos:station:wmo:42397:2,2022-05-01T14:49:00Z,28.7547,-88.2673,28.2,24.6,11111222
Murphy,ioos:station:wmo:42397:2,2022-05-01T15:09:00Z,28.7547,-88.2673,28.2,24.5,11111222
Murphy,ioos:station:wmo:42397:2,2022-05-01T15:28:00Z,28.7547,-88.2673,28.2,24.5,11111222
Murphy,ioos:station:wmo:42397:2,2022-05-01T15:48:00Z,28.7547,-88.2673,28.2,24.5,11111222
Murphy,ioos:station:wmo:42397:2,2022-05-01T16:07:00Z,28.7547,-88.2673,28.2,24.3,11111222
Murphy,ioos:station:wmo:42397:2,2022-05-01T16:27:00Z,28.7547,-88.2673,28.2,24.3,11111222
Murphy,ioos:station:wmo:42397:2,2022-05-01T16:47:00Z,28.7547,-88.2673,28.2,24.4,11111222
Murphy,ioos:station:wmo:42397:2,2022-05-01T17:07:00Z,28.7547,-88.2673,28.2,24.4,11111222
Murphy,ioos:station:wmo:42397:2,2022-05-01T17:27:00Z,28.7547,-88.2673,28.2,24.4,11111222
Murphy,ioos:station:wmo:42397:2,2022-05-01T17:47:00Z,28.7547,-88.2673,28.2,24.3,11111222
Murphy,ioos:station:wmo:42397:2,2022-05-01T18:07:00Z,28.7547,-88.2673,28.2,24.4,11111222
Murphy,ioos:station:wmo:42397:2,2022-05-01T18:27:00Z,28.7547,-88.2673,28.2,24.5,11111222
Murphy,ioos:station:wmo:42397:2,2022-05-01T18:47:00Z,28.7547,-88.2673,28.2,24.5,11111222
Murphy,ioos:station:wmo:42397:2,2022-05-01T19:07:00Z,28.7547,-88.2673,28.2,24.6,11111222
Murphy,ioos:station:wmo:42397:2,2022-05-01T19:27:00Z,28.7547,-88.2673,28.2,24.6,11111222
Murphy,ioos:station:wmo:42397:2,2022-05-01T19:47:00Z,28.7547,-88.2673,28.2,24.6,11111222
Murphy,ioos:station:wmo:42397:2,2022-05-01T20:07:00Z,28.7547,-88.2673,28.2,24.6,11111222
Murphy,ioos:station:wmo:42397:2,2022-05-01T20:27:00Z,28.7547,-88.2673,28.2,24.5,11111222
Murphy,ioos:station:wmo:42397:2,2022-05-01T20:47:00Z,28.7547,-88.2673,28.2,24.5,11111222
Murphy,ioos:station:wmo:42397:2,2022-05-01T21:06:00Z,28.7547,-88.2673,28.2,24.5,11111222
Murphy,ioos:station:wmo:42397:2,2022-05-01T21:26:00Z,28.7547,-88.2673,28.2,24.5,11111222
Murphy,ioos:station:wmo:42397:2,2022-05-01T21:45:00Z,28.7547,-88.2673,28.2,24.5,11111222
Murphy,ioos:station:wmo:42397:2,2022-05-01T22:05:00Z,28.7547,-88.2673,28.2,24.5,11111222
Murphy,ioos:station:wmo:42397:2,2022-05-01T22:25:00Z,28.7547,-88.2673,28.2,24.5,11111222
Murphy,ioos:station:wmo:42397:2,2022-05-01T22:46:00Z,28.7547,-88.2673,28.2,24.4,11111222
Murphy,ioos:station:wmo:42397:2,2022-05-01T23:05:00Z,28.7547,-88.2673,28.2,24.4,11111222
Murphy,ioos:station:wmo:42397:2,2022-05-01T23:25:00Z,28.7547,-88.2673,28.2,24.3,11111222
Murphy,ioos:station:wmo:42397:2,2022-05-01T23:45:00Z,28.7547,-88.2673,28.2,24.3,11111222
Murphy,ioos:station:wmo:42397:2,2022-05-02T00:05:00Z,28.7547,-88.2673,28.2,24.4,11111222
Murphy,ioos:station:wmo:42397:2,2022-05-02T00:25:00Z,28.7547,-88.2673,28.2,24.3,11111222
Murphy,ioos:station:wmo:42397:2,2022-05-02T00:44:00Z,28.7547,-88.2673,28.2,24.2,11111222
Murphy,ioos:station:wmo:42397:2,2022-05-02T01:03:00Z,28.7547,-88.2673,28.2,24.3,11111222
Murphy,ioos:station:wmo:42397:2,2022-05-02T01:23:00Z,28.7547,-88.2673,28.2,24.2,11111222
Murphy,ioos:station:wmo:42397:2,2022-05-02T01:43:00Z,28.7547,-88.2673,28.2,24.0,11111222
Murphy,ioos:station:wmo:42397:2,2022-05-02T02:03:00Z,28.7547,-88.2673,28.2,23.9,11111222
Murphy,ioos:station:wmo:42397:2,2022-05-02T02:23:00Z,28.7547,-88.2673,28.2,23.9,11111222
Murphy,ioos:station:wmo:42397:2,2022-05-02T02:43:00Z,28.7547,-88.2673,28.2,23.9,11111222
Murphy,ioos:station:wmo:42397:2,2022-05-02T03:03:00Z,28.7547,-88.2673,28.2,23.9,11111222
Murphy,ioos:station:wmo:42397:2,2022-05-02T03:23:00Z,28.7547,-88.2673,28.2,23.9,11111222
Murphy,ioos:station:wmo:42397:2,2022-05-02T03:43:00Z,28.7547,-88.2673,28.2,24.0,11111222
Murphy,ioos:station:wmo:42397:2,2022-05-02T04:03:00Z,28.7547,-88.2673,28.2,24.1,11111222
Murphy,ioos:station:wmo:42397:2,2022-05-02T04:23:00Z,28.7547,-88.2673,28.2,24.1,11111222
Murphy,ioos:station:wmo:42397:2,2022-05-02T04:43:00Z,28.7547,-88.2673,28.2,24.2,11111222
Murphy,ioos:station:wmo:42397:2,2022-05-02T05:03:00Z,28.7547,-88.2673,28.2,24.1,11111222
Murphy,ioos:station:wmo:42397:2,2022-05-02T05:23:00Z,28.7547,-88.2673,28.2,24.1,11111222
Murphy,ioos:station:wmo:42397:2,2022-05-02T05:43:00Z,28.7547,-88.2673,28.2,24.2,11111222
Murphy,ioos:station:wmo:42397:2,2022-05-02T06:02:00Z,28.7547,-88.2673,28.2,24.4,11111222
Murphy,ioos:station:wmo:42397:2,2022-05-02T06:22:00Z,28.7547,-88.2673,28.2,24.3,11111222
Murphy,ioos:station:wmo:42397:2,2022-05-02T06:42:00Z,28.7547,-88.2673,28.2,24.2,11111222
Murphy,ioos:station:wmo:42397:2,2022-05-02T07:02:00Z,28.7547,-88.2673,28.2,24.1,11111222
Murphy,ioos:station:wmo:42397:2,2022-05-02T07:22:00Z,28.7547,-88.2673,28.2,24.3,11111222
Murphy,ioos:station:wmo:42397:2,2022-05-02T07:42:00Z,28.7547,-88.2673,28.2,24.3,11111222
Murphy,ioos:station:wmo:42397:2,2022-05-02T08:01:00Z,28.7547,-88.2673,28.2,24.4,11111222
Murphy,ioos:station:wmo:42397:2,2022-05-02T08:21:00Z,28.7547,-88.2673,28.2,24.4,11111222
Murphy,ioos:station:wmo:42397:2,2022-05-02T08:41:00Z,28.7547,-88.2673,28.2,24.5,11111222
Murphy,ioos:station:wmo:42397:2,2022-05-02T09:01:00Z,28.7547,-88.2673,28.2,24.5,11111222
Murphy,ioos:station:wmo:42397:2,2022-05-02T09:21:00Z,28.7547,-88.2673,28.2,24.4,11111222
Murphy,ioos:station:wmo:42397:2,2022-05-02T09:41:00Z,28.7547,-88.2673,28.2,24.1,11111222
Murphy,ioos:station:wmo:42397:2,2022-05-02T10:01:00Z,28.7547,-88.2673,28.2,24.1,11111222
Murphy,ioos:station:wmo:42397:2,2022-05-02T10:21:00Z,28.7547,-88.2673,28.2,24.1,11111222
Murphy,ioos:station:wmo:42397:2,2022-05-02T10:41:00Z,28.7547,-88.2673,28.2,24.1,11111222
Murphy,ioos:station:wmo:42397:2,2022-05-02T11:01:00Z,28.7547,-88.2673,28.2,24.2,11111222
Murphy,ioos:station:wmo:42397:2,2022-05-02T11:21:00Z,28.7547,-88.2673,28.2,24.3,11111222
Murphy,ioos:station:wmo:42397:2,2022-05-02T11:41:00Z,28.7547,-88.2673,28.2,24.2,11111222
Murphy,ioos:station:wmo:42397:2,2022-05-02T12:01:00Z,28.7547,-88.2673,28.2,24.5,11111222
Murphy,ioos:station:wmo:42397:2,2022-05-02T12:21:00Z,28.7547,-88.2673,28.2,24.8,11111222
Murphy,ioos:station:wmo:42397:2,2022-05-02T12:41:00Z,28.7547,-88.2673,28.2,24.9,11111222
Murphy,ioos:station:wmo:42397:2,2022-05-02T13:01:00Z,28.7547,-88.2673,28.2,24.2,11111222
Murphy,ioos:station:wmo:42397:2,2022-05-02T13:21:00Z,28.7547,-88.2673,28.2,24.1,11111222
Murphy,ioos:station:wmo:42397:2,2022-05-02T13:41:00Z,28.7547,-88.2673,28.2,23.9,11111222
Murphy,ioos:station:wmo:42397:2,2022-05-02T14:01:00Z,28.7547,-88.2673,28.2,24.2,11111222
Murphy,ioos:station:wmo:42397:2,2022-05-02T14:21:00Z,28.7547,-88.2673,28.2,24.4,11111222
Murphy,ioos:station:wmo:42397:2,2022-05-02T14:41:00Z,28.7547,-88.2673,28.2,24.6,11111222
Murphy,ioos:station:wmo:42397:2,2022-05-02T15:01:00Z,28.7547,-88.2673,28.2,24.9,11111222
Murphy,ioos:station:wmo:42397:2,2022-05-02T16:23:00Z,28.7547,-88.2673,28.2,23.7,11111222
Murphy,ioos:station:wmo:42397:2,2022-05-02T16:43:00Z,28.7547,-88.2673,28.2,23.8,11111222
Murphy,ioos:station:wmo:42397:2,2022-05-02T17:03:00Z,28.7547,-88.2673,28.2,24.0,11111222
Murphy,ioos:station:wmo:42397:2,2022-05-02T17:23:00Z,28.7547,-88.2673,28.2,23.8,11111222
Murphy,ioos:station:wmo:42397:2,2022-05-02T17:43:00Z,28.7547,-88.2673,28.2,23.5,11111222
Murphy,ioos:station:wmo:42397:2,2022-05-02T18:03:00Z,28.7547,-88.2673,28.2,23.4,11111222
Murphy,ioos:station:wmo:42397:2,2022-05-02T18:23:00Z,28.7547,-88.2673,28.2,23.3,11111222
Murphy,ioos:station:wmo:42397:2,2022-05-02T18:43:00Z,28.7547,-88.2673,28.2,23.3,11111222
Murphy,ioos:station:wmo:42397:2,2022-05-02T19:03:00Z,28.7547,-88.2673,28.2,23.3,11111222
Murphy,ioos:station:wmo:42397:2,2022-05-02T19:23:00Z,28.7547,-88.2673,28.2,23.2,11111222
Murphy,ioos:station:wmo:42397:2,2022-05-02T19:42:00Z,28.7547,-88.2673,28.2,23.0,11111222
Murphy,ioos:station:wmo:42397:2,2022-05-02T20:02:00Z,28.7547,-88.2673,28.2,22.9,11111222
Murphy,ioos:station:wmo:42397:2,2022-05-02T20:22:00Z,28.7547,-88.2673,28.2,22.8,11111222
Murphy,ioos:station:wmo:42397:2,2022-05-02T20:42:00Z,28.7547,-88.2673,28.2,23.1,11111222
Murphy,ioos:station:wmo:42397:2,2022-05-02T21:02:00Z,28.7547,-88.2673,28.2,23.1,11111222
Murphy,ioos:station:wmo:42397:2,2022-05-02T22:26:00Z,28.7547,-88.2673,28.2,22.9,11111222
Murphy,ioos:station:wmo:42397:2,2022-05-02T22:46:00Z,28.7547,-88.2673,28.2,22.9,11111222
Murphy,ioos:station:wmo:42397:2,2022-05-02T23:06:00Z,28.7547,-88.2673,28.2,22.9,11111222
Murphy,ioos:station:wmo:42397:2,2022-05-02T23:26:00Z,28.7547,-88.2673,28.2,23.0,11111222
Murphy,ioos:station:wmo:42397:2,2022-05-02T23:46:00Z,28.7547,-88.2673,28.2,23.1,11111222
Murphy,ioos:station:wmo:42397:2,2022-05-03T00:05:00Z,28.7547,-88.2673,28.2,22.8,11111222
Murphy,ioos:station:wmo:42397:2,2022-05-03T00:25:00Z,28.7547,-88.2673,28.2,23.2,11111222
Murphy,ioos:station:wmo:42397:2,2022-05-03T00:45:00Z,28.7547,-88.2673,28.2,23.1,11111222
Murphy,ioos:station:wmo:42397:2,2022-05-03T01:04:00Z,28.7547,-88.2673,28.2,23.0,11111222
Murphy,ioos:station:wmo:42397:2,2022-05-03T01:24:00Z,28.7547,-88.2673,28.2,23.1,11111222
Murphy,ioos:station:wmo:42397:2,2022-05-03T01:44:00Z,28.7547,-88.2673,28.2,23.1,11111222
Murphy,ioos:station:wmo:42397:2,2022-05-03T02:04:00Z,28.7547,-88.2673,28.2,23.3,11111222
Murphy,ioos:station:wmo:42397:2,2022-05-03T02:24:00Z,28.7547,-88.2673,28.2,23.3,11111222
Murphy,ioos:station:wmo:42397:2,2022-05-03T02:44:00Z,28.7547,-88.2673,28.2,23.2,11111222
Murphy,ioos:station:wmo:42397:2,2022-05-03T03:04:00Z,28.7547,-88.2673,28.2,23.0,11111222
Murphy,ioos:station:wmo:42397:2,2022-05-03T03:24:00Z,28.7547,-88.2673,28.2,22.9,11111222
Murphy,ioos:station:wmo:42397:2,2022-05-03T03:44:00Z,28.7547,-88.2673,28.2,22.9,11111222
Murphy,ioos:station:wmo:42397:2,2022-05-03T04:04:00Z,28.7547,-88.2673,28.2,23.0,11111222
Murphy,ioos:station:wmo:42397:2,2022-05-03T04:24:00Z,28.7547,-88.2673,28.2,23.3,11111222
Murphy,ioos:station:wmo:42397:2,2022-05-03T04:44:00Z,28.7547,-88.2673,28.2,23.6,11111222
Murphy,ioos:station:wmo:42397:2,2022-05-03T05:04:00Z,28.7547,-88.2673,28.2,24.0,11111222
Murphy,ioos:station:wmo:42397:2,2022-05-03T05:24:00Z,28.7547,-88.2673,28.2,24.2,11111222
Murphy,ioos:station:wmo:42397:2,2022-05-03T05:44:00Z,28.7547,-88.2673,28.2,24.1,11111222
Murphy,ioos:station:wmo:42397:2,2022-05-03T06:04:00Z,28.7547,-88.2673,28.2,24.1,11111222
Murphy,ioos:station:wmo:42397:2,2022-05-03T06:24:00Z,28.7547,-88.2673,28.2,24.3,11111222
Murphy,ioos:station:wmo:42397:2,2022-05-03T06:43:00Z,28.7547,-88.2673,28.2,24.7,11111222
Murphy,ioos:station:wmo:42397:2,2022-05-03T07:03:00Z,28.7547,-88.2673,28.2,24.6,11111222
Murphy,ioos:station:wmo:42397:2,2022-05-03T07:23:00Z,28.7547,-88.2673,28.2,24.7,11111222
Murphy,ioos:station:wmo:42397:2,2022-05-03T07:43:00Z,28.7547,-88.2673,28.2,24.6,11111222
Murphy,ioos:station:wmo:42397:2,2022-05-03T08:03:00Z,28.7547,-88.2673,28.2,24.6,11111222
Murphy,ioos:station:wmo:42397:2,2022-05-03T08:22:00Z,28.7547,-88.2673,28.2,24.4,11111222
Murphy,ioos:station:wmo:42397:2,2022-05-03T08:41:00Z,28.7547,-88.2673,28.2,24.5,11111222
Murphy,ioos:station:wmo:42397:2,2022-05-03T09:01:00Z,28.7547,-88.2673,28.2,24.5,11111222
Murphy,ioos:station:wmo:42397:2,2022-05-03T09:21:00Z,28.7547,-88.2673,28.2,24.1,11111222
Murphy,ioos:station:wmo:42397:2,2022-05-03T09:41:00Z,28.7547,-88.2673,28.2,23.7,11111222
Murphy,ioos:station:wmo:42397:2,2022-05-03T10:01:00Z,28.7547,-88.2673,28.2,23.7,11111222
Murphy,ioos:station:wmo:42397:2,2022-05-03T10:21:00Z,28.7547,-88.2673,28.2,23.4,11111222
Murphy,ioos:station:wmo:42397:2,2022-05-03T10:41:00Z,28.7547,-88.2673,28.2,22.9,11111222
Murphy,ioos:station:wmo:42397:2,2022-05-03T11:01:00Z,28.7547,-88.2673,28.2,22.8,11111222
Murphy,ioos:station:wmo:42397:2,2022-05-03T11:21:00Z,28.7547,-88.2673,28.2,22.7,11111222
Murphy,ioos:station:wmo:42397:2,2022-05-03T11:41:00Z,28.7547,-88.2673,28.2,22.6,11111222
Murphy,ioos:station:wmo:42397:2,2022-05-03T12:01:00Z,28.7547,-88.2673,28.2,22.6,11111222
Murphy,ioos:station:wmo:42397:2,2022-05-03T12:21:00Z,28.7547,-88.2673,28.2,22.6,11111222
Murphy,ioos:station:wmo:42397:2,2022-05-03T12:41:00Z,28.7547,-88.2673,28.2,22.6,11111222
Murphy,ioos:station:wmo:42397:2,2022-05-03T13:01:00Z,28.7547,-88.2673,28.2,22.5,11111222
Murphy,ioos:station:wmo:42397:2,2022-05-03T13:21:00Z,28.7547,-88.2673,28.2,22.6,11111222
Murphy,ioos:station:wmo:42397:2,2022-05-03T13:40:00Z,28.7547,-88.2673,28.2,22.5,11111222
Murphy,ioos:station:wmo:42397:2,2022-05-03T14:00:00Z,28.7547,-88.2673,28.2,22.6,11111222
Murphy,ioos:station:wmo:42397:2,2022-05-03T14:20:00Z,28.7547,-88.2673,28.2,22.6,11111222
Murphy,ioos:station:wmo:42397:2,2022-05-03T14:40:00Z,28.7547,-88.2673,28.2,22.5,11111222
Murphy,ioos:station:wmo:42397:2,2022-05-03T15:00:00Z,28.7547,-88.2673,28.2,22.5,11111222
Murphy,ioos:station:wmo:42397:2,2022-05-03T16:05:00Z,28.7547,-88.2673,28.2,22.6,11111222
Murphy,ioos:station:wmo:42397:2,2022-05-03T16:25:00Z,28.7547,-88.2673,28.2,22.6,11111222
Murphy,ioos:station:wmo:42397:2,2022-05-03T16:45:00Z,28.7547,-88.2673,28.2,22.6,11111222
Murphy,ioos:station:wmo:42397:2,2022-05-03T17:05:00Z,28.7547,-88.2673,28.2,22.6,11111222
Murphy,ioos:station:wmo:42397:2,2022-05-03T17:25:00Z,28.7547,-88.2673,28.2,22.5,11111222
Murphy,ioos:station:wmo:42397:2,2022-05-03T17:45:00Z,28.7547,-88.2673,28.2,22.5,11111222
Murphy,ioos:station:wmo:42397:2,2022-05-03T18:04:00Z,28.7547,-88.2673,28.2,22.5,11111222
Murphy,ioos:station:wmo:42397:2,2022-05-03T18:24:00Z,28.7547,-88.2673,28.2,22.5,11111222
Murphy,ioos:station:wmo:42397:2,2022-05-03T18:44:00Z,28.7547,-88.2673,28.2,22.6,11111222
Murphy,ioos:station:wmo:42397:2,2022-05-03T19:04:00Z,28.7547,-88.2673,28.2,22.6,11111222
Murphy,ioos:station:wmo:42397:2,2022-05-03T19:24:00Z,28.7547,-88.2673,28.2,22.8,11111222
Murphy,ioos:station:wmo:42397:2,2022-05-03T19:44:00Z,28.7547,-88.2673,28.2,22.9,11111222
Murphy,ioos:station:wmo:42397:2,2022-05-03T20:04:00Z,28.7547,-88.2673,28.2,23.0,11111222
Murphy,ioos:station:wmo:42397:2,2022-05-03T20:24:00Z,28.7547,-88.2673,28.2,23.5,11111222
Murphy,ioos:station:wmo:42397:2,2022-05-03T20:44:00Z,28.7547,-88.2673,28.2,24.0,11111222
Murphy,ioos:station:wmo:42397:2,2022-05-03T21:04:00Z,28.7547,-88.2673,28.2,24.3,11111222
Murphy,ioos:station:wmo:42397:2,2022-05-03T21:24:00Z,28.7547,-88.2673,28.2,24.2,11111222
Murphy,ioos:station:wmo:42397:2,2022-05-03T21:44:00Z,28.7547,-88.2673,28.2,24.3,11111222
Murphy,ioos:station:wmo:42397:2,2022-05-03T22:04:00Z,28.7547,-88.2673,28.2,24.2,11111222
Murphy,ioos:station:wmo:42397:2,2022-05-03T22:24:00Z,28.7547,-88.2673,28.2,24.0,11111222
Murphy,ioos:station:wmo:42397:2,2022-05-03T22:44:00Z,28.7547,-88.2673,28.2,23.8,11111222
Murphy,ioos:station:wmo:42397:2,2022-05-03T23:04:00Z,28.7547,-88.2673,28.2,23.4,11111222
Murphy,ioos:station:wmo:42397:2,2022-05-03T23:24:00Z,28.7547,-88.2673,28.2,23.7,11111222
Murphy,ioos:station:wmo:42397:2,2022-05-03T23:44:00Z,28.7547,-88.2673,28.2,23.7,11111222
Murphy,ioos:station:wmo:42397:2,2022-05-04T00:04:00Z,28.7547,-88.2673,28.2,24.2,11111222
Murphy,ioos:station:wmo:42397:2,2022-05-04T00:24:00Z,28.7547,-88.2673,28.2,24.2,11111222
Murphy,ioos:station:wmo:42397:2,2022-05-04T00:44:00Z,28.7547,-88.2673,28.2,24.4,11111222
Murphy,ioos:station:wmo:42397:2,2022-05-04T01:04:00Z,28.7547,-88.2673,28.2,24.5,11111222
Murphy,ioos:station:wmo:42397:2,2022-05-04T01:24:00Z,28.7547,-88.2673,28.2,24.5,11111222
Murphy,ioos:station:wmo:42397:2,2022-05-04T01:44:00Z,28.7547,-88.2673,28.2,24.6,11111222
Murphy,ioos:station:wmo:42397:2,2022-05-04T02:04:00Z,28.7547,-88.2673,28.2,24.5,11111222
Murphy,ioos:station:wmo:42397:2,2022-05-04T02:24:00Z,28.7547,-88.2673,28.2,24.6,11111222
Murphy,ioos:station:wmo:42397:2,2022-05-04T02:44:00Z,28.7547,-88.2673,28.2,24.6,11111222
Murphy,ioos:station:wmo:42397:2,2022-05-04T03:04:00Z,28.7547,-88.2673,28.2,24.6,11111222
Murphy,ioos:station:wmo:42397:2,2022-05-04T03:24:00Z,28.7547,-88.2673,28.2,24.6,11111222
Murphy,ioos:station:wmo:42397:2,2022-05-04T03:44:00Z,28.7547,-88.2673,28.2,24.6,11111222
Murphy,ioos:station:wmo:42397:2,2022-05-04T04:04:00Z,28.7547,-88.2673,28.2,24.7,11111222
Murphy,ioos:station:wmo:42397:2,2022-05-04T04:24:00Z,28.7547,-88.2673,28.2,24.6,11111222
Murphy,ioos:station:wmo:42397:2,2022-05-04T04:44:00Z,28.7547,-88.2673,28.2,24.8,11111222
Murphy,ioos:station:wmo:42397:2,2022-05-04T05:04:00Z,28.7547,-88.2673,28.2,24.7,11111222
Murphy,ioos:station:wmo:42397:2,2022-05-04T05:24:00Z,28.7547,-88.2673,28.2,24.7,11111222
Murphy,ioos:station:wmo:42397:2,2022-05-04T05:44:00Z,28.7547,-88.2673,28.2,24.7,11111222
Murphy,ioos:station:wmo:42397:2,2022-05-04T06:04:00Z,28.7547,-88.2673,28.2,24.7,11111222
Murphy,ioos:station:wmo:42397:2,2022-05-04T06:24:00Z,28.7547,-88.2673,28.2,24.7,11111222
Murphy,ioos:station:wmo:42397:2,2022-05-04T06:44:00Z,28.7547,-88.2673,28.2,24.7,11111222
Murphy,ioos:station:wmo:42397:2,2022-05-04T07:04:00Z,28.7547,-88.2673,28.2,24.6,11111222
Murphy,ioos:station:wmo:42397:2,2022-05-04T07:24:00Z,28.7547,-88.2673,28.2,24.7,11111222
Murphy,ioos:station:wmo:42397:2,2022-05-04T07:44:00Z,28.7547,-88.2673,28.2,24.7,11111222
Murphy,ioos:station:wmo:42397:2,2022-05-04T08:04:00Z,28.7547,-88.2673,28.2,24.5,11111222
Murphy,ioos:station:wmo:42397:2,2022-05-04T08:24:00Z,28.7547,-88.2673,28.2,24.1,11111222
Murphy,ioos:station:wmo:42397:2,2022-05-04T08:44:00Z,28.7547,-88.2673,28.2,24.1,11111222
Murphy,ioos:station:wmo:42397:2,2022-05-04T09:04:00Z,28.7547,-88.2673,28.2,23.3,11111222
Murphy,ioos:station:wmo:42397:2,2022-05-04T09:24:00Z,28.7547,-88.2673,28.2,23.6,11111222
Murphy,ioos:station:wmo:42397:2,2022-05-04T09:44:00Z,28.7547,-88.2673,28.2,23.2,11111222
Murphy,ioos:station:wmo:42397:2,2022-05-04T10:04:00Z,28.7547,-88.2673,28.2,23.4,11111222
Murphy,ioos:station:wmo:42397:2,2022-05-04T10:24:00Z,28.7547,-88.2673,28.2,23.8,11111222
Murphy,ioos:station:wmo:42397:2,2022-05-04T10:44:00Z,28.7547,-88.2673,28.2,23.9,11111222
Murphy,ioos:station:wmo:42397:2,2022-05-04T11:04:00Z,28.7547,-88.2673,28.2,24.0,11111222
Murphy,ioos:station:wmo:42397:2,2022-05-04T11:24:00Z,28.7547,-88.2673,28.2,24.0,11111222
Murphy,ioos:station:wmo:42397:2,2022-05-04T11:44:00Z,28.7547,-88.2673,28.2,24.1,11111222
Murphy,ioos:station:wmo:42397:2,2022-05-04T12:04:00Z,28.7547,-88.2673,28.2,23.5,11111222
Murphy,ioos:station:wmo:42397:2,2022-05-04T12:24:00Z,28.7547,-88.2673,28.2,23.9,11111222
Murphy,ioos:station:wmo:42397:2,2022-05-04T12:44:00Z,28.7547,-88.2673,28.2,24.0,11111222
Murphy,ioos:station:wmo:42397:2,2022-05-04T13:04:00Z,28.7547,-88.2673,28.2,23.9,11111222
Murphy,ioos:station:wmo:42397:2,2022-05-04T13:24:00Z,28.7547,-88.2673,28.2,24.4,11111222
Murphy,ioos:station:wmo:42397:2,2022-05-04T13:44:00Z,28.7547,-88.2673,28.2,24.7,11111222
Murphy,ioos:station:wmo:42397:2,2022-05-04T14:04:00Z,28.7547,-88.2673,28.2,24.9,11111222
Murphy,ioos:station:wmo:42397:2,2022-05-04T14:24:00Z,28.7547,-88.2673,28.2,24.9,11111222
Murphy,ioos:station:wmo:42397:2,2022-05-04T14:44:00Z,28.7547,-88.2673,28.2,24.8,11111222
Murphy,ioos:station:wmo:42397:2,2022-05-04T15:04:00Z,28.7547,-88.2673,28.2,24.9,11111222
Murphy,ioos:station:wmo:42397:2,2022-05-04T15:24:00Z,28.7547,-88.2673,28.2,24.9,11111222
Murphy,ioos:station:wmo:42397:2,2022-05-04T15:44:00Z,28.7547,-88.2673,28.2,24.8,11111222
Murphy,ioos:station:wmo:42397:2,2022-05-04T16:04:00Z,28.7547,-88.2673,28.2,24.9,11111222
Murphy,ioos:station:wmo:42397:2,2022-05-04T16:24:00Z,28.7547,-88.2673,28.2,24.9,11111222
Murphy,ioos:station:wmo:42397:2,2022-05-04T16:44:00Z,28.7547,-88.2673,28.2,24.8,11111222
Murphy,ioos:station:wmo:42397:2,2022-05-04T17:04:00Z,28.7547,-88.2673,28.2,24.9,11111222
Murphy,ioos:station:wmo:42397:2,2022-05-04T17:24:00Z,28.7547,-88.2673,28.2,24.9,11111222
Murphy,ioos:station:wmo:42397:2,2022-05-04T17:43:00Z,28.7547,-88.2673,28.2,24.8,11111222
Murphy,ioos:station:wmo:42397:2,2022-05-04T18:03:00Z,28.7547,-88.2673,28.2,24.7,11111222
Murphy,ioos:station:wmo:42397:2,2022-05-04T18:23:00Z,28.7547,-88.2673,28.2,24.7,11111222
Murphy,ioos:station:wmo:42397:2,2022-05-04T18:42:00Z,28.7547,-88.2673,28.2,24.8,11111222